[[{"header":{"parameterUnit":"m.s-1","parameterCategory":1,"la1":30.2991,"la2":30.254,"lo1":-89.0895,"lo2":-89.0444,"dy":0.0017,"dx":0.0017,"nx":28,"ny":28,"refTime":"2024-08-13T03:00:00:Z","depth":0,"parameterNumber":2,"parameterNumberName":"U-component_of_WINDS"},"data":[0,0,0,0,0,0,0,0,0,0,0,0,0,0,0,0,0,0,0,0,0,0,0,0,0,0,0,0,0,0,0,0,0,0,0,0,0,0,0,0,0,0,0,0,0,0,0,0,0,0,0,0,0,0,0,0,0,0,0.9563,0.9563,0,0.9636,0.9637,0.9638,0.9598,0.9596,0.9594,0.9592,0.9673,0.9677,0.9681,0,0,0,0,0,0,0,0,0,0,0,0,0,0.9394,0.9398,0.9563,0.9564,0.9564,0.9636,0.9637,0.9638,0.9598,0.9596,0.9593,0.9591,0.9672,0.9676,0.9681,0,0,0,0,0,0,0,0,0,0,0,0,0,0.9468,0.9399,0.9562,0.9553,0.9553,0.9636,0.9637,0.9638,0.9599,0.9596,0.9593,0.959,0.967,0.9676,0.9682,0.9779,0,0,0.97,0.9703,0,0,0,0,0,0,0,0,0.9464,0.9474,0.9554,0.9554,0.9554,0.9605,0.9607,0.9686,0.96,0.9582,0.9592,0.9589,0.9653,0.966,0.9681,0.9783,0.9787,0.9701,0.9704,0.9707,0.9709,0,0,0,0,0,0,0,0.9459,0.9471,0.9592,0.9555,0.9555,0.9547,0.9554,0.9622,0.9634,0.9583,0.958,0.9589,0.9653,0.9675,0.9682,0.9788,0.9701,0.9706,0.971,0.9712,0.9975,0.9978,0,0,0,0,0,0,0.9453,0.9467,0.9589,0.9594,0.95,0.9553,0.9561,0.9592,0.9633,0.9636,0.9592,0.9587,0.9666,0.9675,0.9685,0.9803,0.9707,0.9713,0.9716,0.9972,0.9976,0.9979,0,0,0,0,0,0,0.945,0.9465,0.9586,0.953,0.9544,0.9559,0.9594,0.9595,0.9617,0.9639,0.9642,0.9612,0.9664,0.9677,0.9756,0.9805,0.9715,0.9721,0.9968,0.9973,0.9978,1.0039,0,0,0,0,0,0,0.9445,0.9463,0.9499,0.9531,0.9548,0.9655,0.9597,0.9598,0.9627,0.9621,0.9659,0.9662,0.9663,0.9747,0.9762,0.9812,0.9726,0.9963,0.997,0.9976,1.0033,1.0046,1.0056,0,0,0,0,0,0.9439,0.9515,0.9501,0.9516,0.9592,0.9658,0.9668,0.9665,0.9631,0.9668,0.9682,0.9661,0.9797,0.9756,0.9772,0.9825,0.996,0.9968,0.9976,1.0027,1.0043,1.0056,0,0,0,0,0,0,0.9491,0.9519,0.9504,0.9592,0.9622,0.9651,0.9698,0.9681,0.9724,0.9717,0.9714,0.9723,0.9806,0.9823,0.9776,0.9922,0.9874,0.9885,0.9908,0.9923,0.9934,0.9929,0.9731,0,0,0,0,0,0.9512,0.9561,0.9583,0.9659,0.9674,0.9683,0.9712,0.9707,0.9739,0.9753,0.9773,0.9807,0.9857,0.989,0.9938,1.0034,1.0043,1.0079,1.009,1.01,1.0111,1.0164,1.0181,1.0004,1.0004,1.0004,0,0,0.9558,0.9579,0.961,0.967,0.9693,0.9745,0.9695,0.9752,0.9792,0.9762,0.9838,0.9854,0.9892,0.998,1.002,0.9997,1.0161,1.011,1.0117,1.0123,1.0174,1.019,1.0205,1.0009,1.0008,1.0008,0,0,0.9667,0.9687,0.9753,0.9776,0.9811,0.9817,0.9833,0.9863,0.9872,0.9948,0.9927,0.9975,1.0061,1.0089,1.0115,1.0234,1.0217,1.025,1.0313,1.0365,1.0379,1.0392,1.0436,1.0452,1.026,1.026,1.026,0,0.972,0.9796,0.9789,0.9848,0.9876,0.9848,0.9916,0.994,0.999,1.001,0.9983,1.0091,1.0114,1.021,1.0239,1.026,1.0279,1.0247,1.0378,1.039,1.0401,1.0444,1.046,1.0264,1.0263,1.0263,1.0263,0,0.986,0.9913,0.9962,1.0009,1.0042,1.0105,1.0109,1.0143,1.0135,1.0144,1.0223,1.0249,1.0302,1.0324,1.0318,1.0419,1.0404,1.0377,1.0329,1.0422,1.0462,1.0478,1.0269,1.0268,1.0267,1.0266,0,0,1.0006,1.0047,1.0065,1.0086,1.0123,1.0165,1.0227,1.0277,1.0308,1.0343,1.0396,1.047,1.0445,1.0474,1.047,1.0516,1.0611,1.0484,1.0485,1.0508,1.0727,1.0748,1.0767,1.0599,1.0602,1.0604,1.0724,0,1.0119,1.0226,1.0221,1.0323,1.0373,1.0348,1.0402,1.0432,1.0442,1.0487,1.0499,1.0551,1.0514,1.0531,1.0575,1.059,1.0655,1.0581,1.0651,1.0654,1.0644,1.0787,1.081,1.0921,1.0739,1.0742,1.0744,0,1.0266,1.0304,1.041,1.0439,1.046,1.0509,1.0555,1.0598,1.0631,1.0635,1.0667,1.0656,1.0721,1.067,1.0761,1.0711,1.0739,1.0751,1.0755,1.0763,1.0706,1.0801,1.0957,1.0974,1.0768,1.0766,1.0764,0,1.0364,1.0442,1.0516,1.0534,1.057,1.0605,1.0622,1.0652,1.0682,1.0723,1.0743,1.0791,1.0818,1.0856,1.0859,1.0821,1.0951,1.09,1.0958,1.0958,1.0988,1.0987,1.1153,1.1003,1.1003,1.1003,1.1003,0,1.0492,1.0559,1.056,1.0606,1.068,1.0674,1.0748,1.0761,1.0788,1.0837,1.0818,1.0865,1.0865,1.0914,1.0916,1.0992,1.1004,1.1011,1.1011,1.1013,1.1013,1.1033,1.1027,1.1007,1.1006,1.1005,1.1005,0,1.0615,1.0619,1.0697,1.0724,1.0732,1.0786,1.081,1.0854,1.0861,1.0924,1.0938,1.0951,1.1007,1.1012,1.1078,1.108,1.1172,1.1163,1.116,1.116,1.1218,1.1214,1.1405,1.1431,1.1263,1.1264,1.1266,0,1.0698,1.0748,1.0779,1.081,1.0828,1.0878,1.0908,1.0905,1.0938,1.0979,1.1019,1.1072,1.1115,1.1206,1.1222,1.1273,1.1266,1.133,1.1274,1.1275,1.1269,1.1267,1.1273,1.1341,1.1343,1.1345,1.1346,0,1.0845,1.0844,1.0887,1.0932,1.0968,1.1004,1.1037,1.1064,1.1064,1.1102,1.1158,1.1191,1.1257,1.1312,1.1361,1.138,1.1365,1.1363,1.1379,1.1384,1.1381,1.1385,1.1192,1.1359,1.1358,1.1357,1.1356,1.1356,1.0951,1.0995,1.1024,1.1073,1.1097,1.1129,1.1172,1.1184,1.123,1.1282,1.1277,1.134,1.1373,1.1437,1.1459,1.1509,1.1489,1.1512,1.1518,1.1525,1.1532,1.1371,1.1518,1.1518,1.1517,1.1517,1.1517,0,1.1099,1.1115,1.1161,1.1207,1.1247,1.1225,1.1261,1.1296,1.135,1.1381,1.1423,1.1488,1.154,1.156,1.1612,1.1648,1.1642,1.1662,1.166,1.1666,1.1546,1.1528,1.1666,1.1666,1.1666,1.1666,1.1666,1.1666,1.118,1.1253,1.1256,1.1341,1.1358,1.1418,1.144,1.1469,1.1494,1.1567,1.1609,1.1621,1.1648,1.1701,1.1749,1.1754,1.1774,1.1798,1.18,1.1689,1.1674,1.1659,1.1642,1.1802,1.1802,1.1915,1.1916,1.1917]},{"header":{"parameterUnit":"m.s-1","parameterCategory":1,"la1":30.2991,"la2":30.254,"lo1":-89.0895,"lo2":-89.0444,"dy":0.0017,"dx":0.0017,"nx":28,"ny":28,"refTime":"2024-08-13T03:00:00:Z","depth":0,"parameterNumber":3,"parameterNumberName":"V-component_of_WINDS"},"data":[0,0,0,0,0,0,0,0,0,0,0,0,0,0,0,0,0,0,0,0,0,0,0,0,0,0,0,0,0,0,0,0,0,0,0,0,0,0,0,0,0,0,0,0,0,0,0,0,0,0,0,0,0,0,0,0,0,0,1.5625,1.5625,0,1.5599,1.5598,1.5598,1.552,1.5518,1.5517,1.5515,1.5487,1.5487,1.5488,0,0,0,0,0,0,0,0,0,0,0,0,0,1.5607,1.5608,1.5625,1.5625,1.5625,1.5599,1.5598,1.5598,1.552,1.5518,1.5516,1.5514,1.5486,1.5487,1.5488,0,0,0,0,0,0,0,0,0,0,0,0,0,1.5601,1.5608,1.5626,1.5583,1.5579,1.5599,1.5598,1.5598,1.5521,1.5518,1.5516,1.5513,1.5486,1.5487,1.5488,1.5547,0,0,1.5492,1.5493,0,0,0,0,0,0,0,0,1.5602,1.5602,1.559,1.5586,1.5581,1.556,1.5581,1.5581,1.5522,1.5543,1.5515,1.5512,1.5513,1.5512,1.5512,1.5546,1.5544,1.5492,1.5493,1.5494,1.5494,0,0,0,0,0,0,0,1.5602,1.5603,1.5615,1.5589,1.5585,1.5564,1.5561,1.5581,1.5543,1.5541,1.5535,1.5533,1.551,1.5511,1.5511,1.5544,1.5492,1.5493,1.5494,1.5495,1.5619,1.5622,0,0,0,0,0,0,1.5609,1.5603,1.5616,1.5614,1.5585,1.5567,1.5563,1.557,1.5542,1.5536,1.5535,1.553,1.5511,1.551,1.551,1.5573,1.5494,1.5495,1.5495,1.5617,1.562,1.5623,0,0,0,0,0,0,1.5609,1.5611,1.5617,1.5607,1.5606,1.557,1.5578,1.557,1.5571,1.5538,1.5531,1.5544,1.5509,1.5508,1.5537,1.5571,1.5495,1.5496,1.5614,1.5618,1.5621,1.5702,0,0,0,0,0,0,1.5609,1.5611,1.5634,1.5608,1.5607,1.5646,1.558,1.5572,1.5574,1.5566,1.5544,1.5538,1.5507,1.5536,1.5539,1.5571,1.5497,1.5611,1.5616,1.562,1.5696,1.5708,1.5718,0,0,0,0,0,1.5608,1.5658,1.5635,1.5637,1.5635,1.5648,1.5647,1.5611,1.5577,1.5598,1.5576,1.5538,1.5568,1.554,1.5542,1.5576,1.5608,1.5614,1.562,1.5691,1.5706,1.5718,0,0,0,0,0,0,1.5688,1.5654,1.5628,1.5672,1.5663,1.5635,1.5661,1.5628,1.5629,1.5621,1.5576,1.5572,1.5606,1.5594,1.5564,1.5629,1.5581,1.5588,1.5635,1.5648,1.5659,1.566,1.5498,0,0,0,0,0,1.5711,1.5726,1.5695,1.5736,1.5733,1.5698,1.5702,1.5675,1.5664,1.566,1.564,1.5631,1.5637,1.5643,1.5648,1.5695,1.5687,1.5719,1.573,1.574,1.5745,1.5765,1.5777,1.5642,1.5642,1.5642,0,0,1.5758,1.5741,1.5753,1.5751,1.5741,1.5755,1.5695,1.5714,1.5723,1.5663,1.5688,1.5674,1.566,1.5697,1.5713,1.5688,1.5781,1.5747,1.5755,1.5754,1.5772,1.5785,1.5796,1.5646,1.5645,1.5644,0,0,1.585,1.5841,1.5872,1.5863,1.5849,1.5825,1.5833,1.5809,1.5796,1.5822,1.5775,1.5786,1.58,1.579,1.5788,1.5875,1.5838,1.5878,1.5935,1.5955,1.5966,1.5975,1.6002,1.6013,1.5884,1.5884,1.5884,0,1.591,1.593,1.5892,1.5912,1.5911,1.5858,1.5887,1.5881,1.5869,1.5869,1.5843,1.5856,1.5844,1.5876,1.5897,1.5898,1.5903,1.5879,1.5967,1.5976,1.5984,1.6009,1.602,1.5889,1.5888,1.5888,1.5887,0,1.6002,1.6017,1.6044,1.6032,1.6035,1.6061,1.6025,1.6032,1.6005,1.5983,1.6008,1.5991,1.5989,1.5996,1.597,1.6024,1.6009,1.5976,1.5926,1.6002,1.6025,1.6035,1.5895,1.5894,1.5892,1.5891,0,0,1.6142,1.6109,1.6119,1.6112,1.6092,1.6102,1.6124,1.6123,1.6128,1.6122,1.6137,1.6149,1.6117,1.6114,1.6087,1.6105,1.617,1.6069,1.6068,1.6085,1.6224,1.6247,1.6259,1.6147,1.6149,1.6151,1.6224,0,1.6226,1.6261,1.6227,1.6268,1.6279,1.6228,1.6247,1.6236,1.6217,1.6223,1.6201,1.6209,1.6169,1.6166,1.6182,1.6159,1.6197,1.6154,1.6158,1.6159,1.6159,1.6271,1.6295,1.6366,1.6233,1.6235,1.6236,0,1.6328,1.6325,1.6367,1.6342,1.6345,1.6363,1.6357,1.6364,1.635,1.6334,1.633,1.6297,1.6315,1.627,1.6292,1.6263,1.6263,1.6252,1.6254,1.625,1.6199,1.6266,1.6388,1.6397,1.6251,1.6249,1.6248,0,1.642,1.6428,1.6453,1.6449,1.6421,1.6434,1.6423,1.6407,1.6407,1.6402,1.6401,1.6399,1.6397,1.6396,1.6361,1.6332,1.6387,1.634,1.6371,1.6372,1.6382,1.6381,1.6501,1.6389,1.6389,1.6389,1.6389,0,1.6514,1.6541,1.6493,1.6509,1.6537,1.6497,1.6526,1.6509,1.6495,1.6504,1.6462,1.6472,1.6428,1.6433,1.6407,1.6427,1.6428,1.6413,1.6405,1.6415,1.6416,1.6412,1.6404,1.6392,1.6391,1.6391,1.639,0,1.6621,1.6591,1.6614,1.6586,1.6579,1.6601,1.6576,1.6588,1.6566,1.6579,1.6579,1.6544,1.6548,1.6514,1.6512,1.6494,1.6525,1.651,1.6529,1.6523,1.6555,1.6551,1.6673,1.6685,1.657,1.6571,1.6572,0,1.6681,1.6701,1.6674,1.6677,1.6668,1.6675,1.6675,1.6637,1.6638,1.6622,1.6635,1.6635,1.6633,1.664,1.6614,1.6611,1.6593,1.6636,1.6592,1.66,1.6589,1.6586,1.6586,1.6644,1.6646,1.6647,1.6648,0,1.679,1.6773,1.6775,1.6771,1.6771,1.6767,1.6759,1.6764,1.6722,1.6725,1.6728,1.6726,1.6723,1.6722,1.6713,1.6701,1.6666,1.6662,1.6669,1.6677,1.6685,1.6677,1.655,1.6659,1.6658,1.6657,1.6656,1.6656,1.6872,1.6885,1.6868,1.687,1.686,1.6853,1.6862,1.6841,1.6843,1.6836,1.6814,1.682,1.6803,1.6788,1.6779,1.6782,1.676,1.6771,1.6773,1.6775,1.6779,1.6688,1.6781,1.678,1.678,1.678,1.6779,0,1.6975,1.6961,1.6964,1.6953,1.6954,1.6924,1.6913,1.6915,1.6921,1.6909,1.6907,1.6908,1.6907,1.6881,1.6876,1.6883,1.6867,1.6883,1.688,1.6877,1.68,1.6793,1.6896,1.6896,1.6896,1.6895,1.6895,1.6895,1.7028,1.7048,1.7029,1.7043,1.7029,1.7034,1.703,1.7022,1.7012,1.7015,1.7014,1.6997,1.6978,1.6971,1.6968,1.696,1.6958,1.6979,1.6965,1.6894,1.6882,1.6872,1.6864,1.698,1.698,1.704,1.7041,1.7041]}]]